Regional Weather Roundup
Issued by NWS

Home | Current Version | Previous Version | Text Only | Print | Product List | Glossary Off
Versions: 1 2 3 4 5 6 7 8 9 10 11 12 13 14 15 16 17 18 19 20 21 22 23 24 25 26 27 28 29 30 31 32 33 34 35 36 37 38 39 40 41 42 43 44 45 46 47 48 49 50

000
ASUS45 KABQ 111010
RWRNM
NEW MEXICO REGIONAL WEATHER ROUNDUP
NATIONAL WEATHER SERVICE ALBUQUERQUE NM
300 AM MST SUN DEC 11 2016

NOTE: "FAIR" MEANS FEW OR NO CLOUDS BELOW 12,000 FEET AGL WITH NO
       SIGNIFICANT WEATHER OR OBSTRUCTIONS TO VISION.

      THIS PRODUCT IS RELEASED AS TWO VERSIONS.  ONE VERSION NEAR
      THE TOP OF THE HOUR CONTAINING PRELIMINARY DATA FROM ALBUQUERQUE
      AND OTHER STATIONS.  A FINAL VERSION WITH ADDITIONAL DATA IS
      ISSUED ABOUT 10 MINUTES AFTER THE HOUR.

NMZ501-503-504-510>518-111100-
NORTHWEST PLATEAU/NORTHCENTRAL MOUNTAINS

CITY           SKY/WX    TMP DP  RH WIND       PRES   REMARKS
FARMINGTON     FAIR      30  25  81 E8        29.99R WCI  22
LOS ALAMOS     FAIR      40  23  51 CALM      30.01S
SANTA FE       FAIR      38  26  62 VRB3      29.98S
TAOS           FAIR      30  16  55 SE6       29.98F WCI  24
ANGEL FIRE     FAIR      36  22  57 W15       29.97F WCI  26

$$
NMZ402-403-502-505>509-111100-
WESTCENTRAL MOUNTAINS/SOUTHWEST MOUNTAINS

CITY           SKY/WX    TMP DP  RH WIND       PRES   REMARKS
GALLUP         FAIR      39  28  64 SW13      30.06F WCI  31
GRANTS         FAIR      33  25  73 W3        30.07R
SILVER CITY    FAIR      43  29  57 NW9       30.11S

$$
NMZ407-409-411-412-111100-
SOUTHERN DESERTS

CITY           SKY/WX    TMP DP  RH WIND       PRES   REMARKS
DEMING         FAIR      37  31  78 SW9       30.08F WCI  30
LAS CRUCES     FAIR      39  32  77 CALM      30.08S
HOLLOMAN AFB   FAIR      46  35  64 SE8       30.05F
T OR C         FAIR      39  31  72 CALM      30.03S

$$
NMZ519>523-111100-
CENTRAL VALLEYS/CENTRAL HIGHLANDS

CITY           SKY/WX    TMP DP  RH WIND       PRES   REMARKS
ALBUQUERQUE    MOCLDY    38  27  64 SE5       30.01F WCI  34
DOUBLE EAGLE   FAIR      29  25  82 CALM      30.02F
MORIARTY ARPT  FAIR      38  24  55 NW3       30.01S
CLINES CORNERS FAIR      38  24  57 W33G40    29.94R WCI  25
BELEN          FAIR      41  28  60 E3        30.01S
SOCORRO        FAIR      37  30  74 SW7       30.02S WCI  32

$$
NMZ524>526-539-540-111100-
SOUTHCENTRAL MOUNTAINS

CITY           SKY/WX    TMP DP  RH WIND       PRES   REMARKS
RUIDOSO        FAIR      50  16  25 W12G24    29.99F

$$
NMZ527>531-111100-
NORTHEAST HIGHLANDS/NORTHEAST PLAINS

CITY           SKY/WX    TMP DP  RH WIND       PRES   REMARKS
LAS VEGAS      FAIR      44  21  40 CALM      29.84F
RATON          FAIR      51  23  33 SW10      29.77R
CLAYTON        FAIR      51  29  42 W15       29.70S

$$
NMZ532>537-111100-
EASTCENTRAL PLAINS

CITY           SKY/WX    TMP DP  RH WIND       PRES   REMARKS
TUCUMCARI      FAIR      54  28  36 W25G33    29.75F
CANNON AFB     FAIR      42  34  73 W22       29.82F
CLOVIS AIRPORT FAIR      43  30  61 W18       29.83F

$$
NMZ028-029-538-111100-
SOUTHEAST PLAINS

CITY           SKY/WX    TMP DP  RH WIND       PRES   REMARKS
ROSWELL        FAIR      32  27  81 N8        29.90F WCI  25
ARTESIA        FAIR      50  34  53 SW14      29.90F
CARLSBAD       NOT AVBL


$$




USA.gov is the U.S. government's official web portal to all federal, state and local government web resources and services.